Location: Unspecified
(42.9278°N, 0.0000°E)
Time: 02:51:59
(UTC+00:00)

CZ-6A R/B DEB - Visible Passes

Search period start: 05 April 2026 00:00
Search period end: 15 April 2026 00:00
Orbit: 619 x 762 km, 89.1° (Epoch: 28 March)

Date Brightness Start Highest point End Pass type
(mag) Time Alt. Az. Time Alt. Az. Time Alt. Az.
5 Apr ? 19:09:11 10° NNW 19:12:20 20° WNW 19:15:29 10° SW visible
6 Apr ? 04:39:11 10° E 04:39:42 10° ENE 04:40:13 10° ENE visible
9 Apr ? 04:55:19 10° SE 04:58:51 21° ENE 05:02:18 10° NNE visible
10 Apr ? 19:10:02 10° NW 19:11:41 12° WNW 19:13:20 10° W visible
11 Apr ? 04:36:11 10° ESE 04:39:04 16° ENE 04:41:53 10° NE visible
13 Apr ? 04:17:22 10° E 04:19:14 12° ENE 04:21:05 10° NE visible
